Location: Eaton
(41.3139°N, 82.0207°W)
Time: 20:54:25
(UTC+00:00)

COSMOS 2251 DEB - Visible Passes

Search period start: 22 January 2022 00:00
Search period end: 01 February 2022 00:00
Orbit: 708 x 856 km, 74.2° (Epoch: 22 January)

Date Brightness Start Highest point End Pass type
(mag) Time Alt. Az. Time Alt. Az. Time Alt. Az.
28 Jan ? 00:38:48 10° N 00:39:21 12° N 00:39:21 12° N visible
29 Jan ? 00:06:40 10° NNE 00:07:47 13° NNE 00:07:47 13° NNE visible
29 Jan ? 01:47:42 10° NNW 01:48:24 14° NNW 01:48:24 14° NNW visible
29 Jan ? 23:35:23 10° NE 23:36:23 11° NE 23:36:23 11° NE visible
30 Jan ? 01:14:50 10° NNW 01:17:00 26° NNW 01:17:00 26° NNW visible
31 Jan ? 00:42:06 10° N 00:45:49 43° NNE 00:45:49 43° NNE visible
31 Jan ? 02:25:44 10° WNW 02:26:28 12° WNW 02:26:28 12° WNW visible
